Temp
43 41 36 33 34 35 35 31 30 33 36 35 32 33 40 44 38 38 39 40 40 41 42 40 41 41 41 41 42 41 41 41 40 38 37 39 38 39 42 48 50 50 51 51
40 36 36 39 38 36 35 33 31 35 37 34 33 36 39 38 39 37 39 40 40 39 40 44 40 39 41 40 39 40 40 40 40 39 38 39 37 39 43 48 48 50 51 51
37 36 40 39 35 35 34 32 30 31 34 32 31 34 37 39 40 40 40 41 40 40 42 40 39 38 37 37 37 39 39 39 40 39 39 39 40 41 45 45 46 48 50 51
35 37 37 35 35 35 35 34 33 33 31 29 31 29 34 36 39 40 42 41 41 40 40 41 38 37 36 37 36 38 39 39 42 39 37 36 35 37 41 43 45 48 50 50
36 35 35 35 35 35 34 34 32 32 30 27 30 25 35 34 36 40 41 41 40 39 39 40 39 40 36 37 35 36 37 39 39 39 37 35 35 36 41 42 44 47 49 50
34 37 36 34 36 35 36 33 32 30 29 17 28 25 32 34 37 39 38 41 42 39 38 38 38 38 36 35 35 35 36 37 39 38 36 35 35 36 38 42 43 45 46 47
34 34 34 36 34 35 34 30 20 22 18 22 27 24 35 37 38 39 41 41 41 38 37 37 36 36 34 33 35 36 36 37 39 38 36 36 36 36 37 39 41 43 44 46
30 29 33 35 33 33 32 32 23 19 19 22 28 27 38 39 39 40 41 40 40 38 38 36 35 36 35 34 33 34 35 36 38 37 37 37 38 37 42 41 43 43 44 45
29 29 34 34 34 33 32 27 33 20 12 18 27 33 39 38 41 40 42 41 41 39 39 35 36 35 35 33 34 34 35 35 37 37 38 39 37 37 40 42 43 43 45 46
35 27 30 33 34 34 33 35 28 23 21 19 22 27 33 38 41 41 42 42 41 38 36 37 36 35 34 33 33 33 34 35 35 38 40 40 39 39 37 41 42 43 44 46
31 32 27 31 27 29 29 26 30 30 26 19 15 31 35 39 41 43 43 42 41 39 38 37 35 34 33 33 32 32 33 34 35 38 41 41 40 41 41 40 41 42 44 45
37 32 23 26 29 30 29 31 32 26 22 17 20 27 39 38 38 39 41 42 40 39 38 36 34 33 31 32 32 32 32 34 35 40 41 38 39 40 39 39 41 42 43 45
38 29 21 26 28 29 28 32 33 29 27 18 20 29 38 36 38 39 39 41 40 38 37 35 32 31 31 31 31 31 32 33 35 39 40 40 39 38 39 40 40 41 42 43
42 25 31 32 34 30 23 27 31 29 18 23 24 29 38 35 34 37 38 36 36 34 36 35 33 32 31 31 30 30 31 33 34 39 37 38 39 39 39 39 38 40 42 42
38 30 20 21 29 32 32 26 27 24 30 28 34 28 42 35 36 36 36 38 35 33 30 31 29 29 26 29 30 30 31 32 33 35 36 38 39 39 39 39 39 40 40 41
35 26 23 22 21 25 26 28 27 27 23 26 29 32 46 48 41 34 36 36 36 37 33 30 31 30 29 27 29 31 27 31 33 33 33 37 38 38 38 38 38 38 39 40
33 27 26 23 19 22 25 32 29 28 29 34 28 42 42 39 40 39 40 39 39 39 38 35 33 31 31 30 32 29 30 31 32 33 33 33 35 34 36 37 38 37 38 38
31 30 26 19 20 23 35 34 34 34 35 34 37 40 43 41 40 40 40 39 39 40 39 37 34 33 31 30 28 31 31 31 32 32 33 33 33 33 33 32 36 37 37 37
33 34 26 24 17 30 35 32 33 34 39 39 39 44 42 38 39 41 40 40 40 39 40 38 36 34 30 30 30 30 30 30 31 32 32 33 33 32 33 33 32 33 34 34
34 36 31 24 27 22 35 35 36 37 32 41 38 39 37 37 38 41 39 39 40 38 39 37 34 33 31 29 30 30 30 30 30 31 32 32 32 33 32 32 31 31 32 33
23 25 30 27 32 32 37 36 36 31 38 38 38 39 38 39 44 42 40 40 38 38 37 35 33 33 32 29 31 30 30 30 32 31 30 29 31 31 31 31 30 30 30 30
28 30 32 32 32 32 36 35 38 43 38 40 38 39 39 40 40 39 39 41 38 37 36 34 32 32 29 29 31 30 30 30 28 27 26 24 23 29 29 26 24 24 25 24
32 37 35 38 37 40 40 42 42 41 43 40 40 41 41 41 39 39 40 40 38 36 36 34 33 28 23 26 28 30 27 26 23 23 23 20 20 22 24 24 22 23 22 22
28 31 30 36 35 37 38 38 38 40 43 42 41 42 40 42 42 39 40 39 38 36 30 27 28 27 27 25 27 26 25 24 23 22 20 20 22 20 18 23 24 23 21 20
30 33 26 28 32 35 39 37 39 40 40 41 41 42 43 41 41 39 40 38 37 36 28 27 29 28 27 25 25 20 21 23 24 21 21 23 23 22 21 22 23 24 23 25
29 28 35 40 40 42 44 42 39 39 40 42 39 38 38 39 39 37 37 34 32 29 26 26 28 30 32 29 28 25 23 24 25 24 24 25 25 22 22 22 21 30 32 34
MSLP
1018.42 1018.90 1019.61 1020.05 1019.99 1019.78 1019.79 1020.04 1020.35 1020.25 1020.67 1021.03 1020.46 1019.48 1018.06 1017.40 1017.60 1017.69 1017.74 1018.04 1017.99 1018.09 1017.60 1017.35 1017.26 1017.50 1017.97 1018.40 1018.57 1018.83 1018.87 1018.88 1018.94 1018.89 1018.70 1018.31 1018.09 1017.37 1016.99 1016.37 1016.34 1016.22 1016.03 1015.93
1019.19 1019.57 1020.09 1020.32 1020.36 1020.18 1020.31 1020.60 1020.83 1020.65 1020.92 1021.55 1020.54 1018.73 1017.43 1017.01 1016.90 1016.91 1017.13 1017.47 1017.56 1017.66 1017.52 1017.33 1017.30 1017.64 1018.10 1018.53 1018.79 1018.85 1019.01 1018.96 1018.93 1018.89 1018.76 1018.63 1018.22 1017.48 1017.05 1016.39 1016.30 1016.08 1015.82 1015.83
1019.68 1020.37 1020.34 1020.50 1020.69 1020.73 1020.96 1021.06 1021.38 1021.76 1021.56 1021.65 1021.18 1018.70 1017.21 1016.42 1016.40 1016.33 1016.59 1016.85 1017.14 1017.32 1017.43 1017.22 1017.37 1017.76 1018.31 1018.73 1018.91 1018.97 1018.91 1019.00 1019.01 1018.81 1018.71 1018.46 1017.91 1017.37 1016.89 1016.49 1016.37 1015.96 1015.70 1015.49
1020.66 1020.87 1020.90 1020.89 1021.11 1021.36 1021.64 1021.70 1021.90 1022.10 1022.54 1022.75 1021.72 1019.96 1017.48 1016.72 1016.38 1016.07 1016.27 1016.66 1016.93 1017.32 1017.23 1017.30 1017.51 1017.87 1018.41 1018.66 1018.95 1018.94 1018.98 1018.91 1018.83 1018.75 1018.76 1018.79 1018.50 1018.04 1017.34 1016.91 1016.53 1015.98 1015.53 1015.25
1021.25 1021.33 1021.33 1021.26 1021.48 1021.74 1022.31 1022.45 1022.62 1022.69 1023.15 1023.36 1022.22 1021.30 1017.40 1016.73 1016.18 1015.89 1016.04 1016.34 1016.70 1017.10 1017.27 1017.44 1017.66 1017.95 1018.33 1018.64 1018.93 1019.06 1018.93 1018.80 1018.89 1018.81 1018.74 1018.72 1018.52 1018.18 1017.60 1017.16 1016.66 1016.10 1015.41 1014.94
1021.66 1021.83 1021.79 1021.76 1021.86 1021.95 1022.46 1022.93 1023.22 1023.42 1023.72 1023.63 1022.41 1021.25 1017.84 1016.79 1016.15 1016.01 1016.12 1016.50 1016.74 1017.08 1017.32 1017.50 1017.84 1018.15 1018.59 1018.86 1019.03 1019.12 1018.90 1018.87 1018.79 1018.65 1018.68 1018.65 1018.44 1018.24 1017.81 1017.29 1016.66 1016.12 1015.50 1014.75
1021.95 1022.17 1022.25 1022.20 1022.33 1022.36 1022.67 1023.17 1023.81 1024.48 1024.56 1023.98 1022.58 1021.62 1017.17 1015.93 1015.77 1016.00 1016.22 1016.49 1016.66 1016.99 1017.39 1017.58 1018.07 1018.42 1018.75 1019.02 1019.10 1019.07 1018.99 1018.95 1018.75 1018.62 1018.62 1018.71 1018.51 1018.15 1017.67 1017.14 1016.72 1016.33 1015.70 1015.34
1021.82 1022.61 1022.71 1022.75 1022.82 1022.64 1022.95 1023.08 1023.98 1025.25 1026.11 1024.32 1022.62 1020.43 1016.61 1015.54 1015.33 1015.58 1015.92 1016.23 1016.49 1016.78 1017.24 1017.49 1017.92 1018.42 1018.79 1019.06 1019.21 1019.16 1019.07 1019.08 1018.84 1018.64 1018.59 1018.50 1018.36 1018.15 1017.71 1017.38 1016.89 1016.65 1016.07 1015.68
1020.95 1022.54 1023.13 1023.05 1023.05 1023.26 1023.37 1023.44 1023.82 1024.93 1026.57 1025.21 1021.90 1019.00 1016.34 1015.27 1015.01 1015.21 1015.52 1015.90 1016.10 1016.53 1017.00 1017.46 1017.89 1018.44 1018.94 1019.29 1019.28 1019.22 1019.20 1019.04 1018.93 1018.74 1018.47 1018.46 1018.49 1018.18 1017.92 1017.62 1017.06 1016.89 1016.46 1015.85
1019.42 1022.07 1023.65 1023.57 1023.51 1023.54 1023.33 1023.57 1024.01 1024.58 1025.59 1024.99 1021.95 1019.97 1016.89 1015.40 1014.94 1014.88 1015.28 1015.44 1015.84 1016.36 1016.93 1017.45 1018.06 1018.57 1019.01 1019.16 1019.35 1019.36 1019.29 1019.14 1019.00 1018.76 1018.37 1018.35 1018.44 1018.18 1018.11 1017.77 1017.47 1017.26 1016.54 1016.15
1019.21 1020.38 1023.98 1024.08 1023.78 1023.51 1023.90 1023.65 1024.09 1024.39 1024.77 1024.62 1023.15 1019.30 1015.98 1015.10 1014.79 1014.87 1015.08 1015.36 1015.75 1016.25 1016.88 1017.43 1018.10 1018.67 1019.12 1019.32 1019.55 1019.62 1019.50 1019.27 1018.97 1018.70 1018.42 1018.36 1018.39 1018.39 1018.11 1017.88 1017.47 1017.16 1016.49 1015.95
1018.57 1020.19 1023.09 1023.91 1023.77 1023.65 1023.44 1023.26 1023.34 1024.17 1025.22 1025.11 1023.75 1018.96 1015.58 1015.50 1015.31 1015.43 1015.42 1015.60 1015.73 1016.16 1016.70 1017.46 1018.00 1018.74 1019.35 1019.55 1019.72 1019.84 1019.71 1019.47 1019.07 1018.60 1018.34 1018.36 1018.33 1018.44 1018.50 1018.47 1017.77 1017.63 1017.02 1016.60
1017.81 1019.96 1022.35 1023.74 1024.22 1023.86 1023.46 1023.15 1023.16 1023.64 1024.26 1024.43 1023.27 1018.67 1016.09 1015.82 1015.67 1015.60 1015.84 1015.63 1015.73 1016.25 1016.69 1017.40 1018.08 1018.71 1019.26 1019.62 1019.77 1019.93 1019.96 1019.63 1019.22 1018.77 1018.52 1018.21 1018.19 1018.34 1018.48 1018.58 1018.46 1017.84 1017.42 1016.95
1017.29 1018.97 1020.41 1021.29 1021.16 1021.37 1022.72 1022.77 1022.95 1023.11 1024.12 1023.20 1021.28 1018.38 1016.52 1015.98 1016.08 1015.84 1015.82 1015.66 1015.73 1016.21 1016.49 1017.05 1017.91 1018.50 1018.97 1019.53 1019.70 1019.96 1020.05 1019.89 1019.39 1018.96 1018.81 1018.49 1018.33 1018.30 1018.35 1018.36 1018.38 1018.20 1017.95 1017.45
1017.85 1019.37 1020.31 1021.33 1020.98 1020.87 1021.19 1021.81 1022.23 1022.55 1021.70 1021.72 1019.01 1018.11 1015.03 1015.30 1015.72 1015.66 1015.48 1015.49 1015.69 1015.86 1016.38 1016.57 1017.37 1018.23 1018.68 1019.32 1019.71 1019.92 1020.03 1020.12 1019.71 1019.44 1019.21 1018.90 1018.69 1018.56 1018.53 1018.42 1018.24 1018.11 1017.83 1017.78
1018.30 1019.59 1020.32 1021.81 1021.81 1021.38 1021.25 1020.90 1021.30 1021.33 1020.88 1019.99 1018.51 1016.63 1014.63 1013.97 1014.65 1015.16 1015.26 1015.24 1015.28 1015.27 1015.63 1015.76 1016.65 1017.64 1018.31 1018.79 1019.55 1019.95 1020.02 1020.08 1020.10 1019.97 1019.68 1019.31 1019.10 1018.93 1018.76 1018.84 1018.90 1018.66 1018.54 1018.42
1018.28 1019.40 1020.44 1021.86 1021.74 1021.19 1020.67 1018.30 1019.12 1019.19 1018.63 1018.13 1017.65 1013.89 1013.61 1013.41 1014.06 1014.34 1014.44 1014.43 1014.34 1014.39 1014.62 1014.96 1015.73 1016.66 1017.41 1018.16 1018.82 1019.79 1020.04 1020.10 1020.27 1020.24 1020.19 1020.00 1019.70 1019.58 1019.25 1019.00 1019.12 1019.31 1019.27 1019.32
1017.88 1018.63 1019.51 1021.26 1021.52 1019.85 1016.62 1015.90 1016.26 1016.75 1016.17 1016.18 1014.83 1013.19 1012.71 1013.16 1013.35 1013.49 1013.50 1013.61 1013.51 1013.64 1013.91 1014.34 1015.13 1016.08 1016.94 1017.67 1018.49 1019.19 1019.85 1020.16 1020.31 1020.40 1020.32 1020.40 1020.37 1020.25 1020.06 1019.77 1019.49 1019.59 1019.68 1019.83
1017.02 1017.62 1019.10 1019.77 1019.73 1017.16 1015.62 1015.55 1015.60 1015.57 1013.63 1013.20 1013.38 1012.19 1012.67 1012.88 1012.99 1012.45 1012.57 1012.79 1012.89 1013.04 1013.30 1013.70 1014.48 1015.53 1016.50 1017.19 1018.03 1018.91 1019.64 1020.04 1020.31 1020.46 1020.55 1020.52 1020.56 1020.72 1020.70 1020.60 1020.53 1020.40 1020.40 1020.33
1016.97 1016.89 1017.31 1018.27 1017.77 1015.92 1014.09 1013.42 1013.65 1013.86 1013.05 1011.58 1012.13 1012.30 1012.63 1012.84 1013.04 1012.21 1012.09 1012.47 1012.47 1012.61 1012.99 1013.61 1014.37 1015.31 1016.32 1017.06 1017.68 1018.69 1019.49 1019.91 1020.25 1020.36 1020.50 1020.65 1020.76 1020.87 1021.14 1021.35 1021.24 1021.25 1021.24 1021.19
1016.98 1017.00 1016.42 1016.18 1015.55 1013.85 1012.62 1013.09 1013.44 1013.29 1011.89 1011.19 1011.63 1011.89 1012.33 1012.52 1012.30 1012.31 1012.24 1012.34 1012.48 1012.64 1013.23 1013.84 1014.53 1015.12 1015.87 1016.73 1017.52 1018.46 1019.10 1019.48 1019.55 1019.99 1020.41 1020.79 1021.04 1021.19 1021.34 1021.54 1021.70 1021.80 1021.88 1021.99
1014.53 1015.31 1015.18 1015.03 1014.04 1012.25 1011.88 1013.27 1012.42 1010.60 1010.29 1010.69 1011.27 1011.55 1011.98 1011.82 1011.94 1012.20 1012.31 1012.57 1012.57 1012.96 1013.53 1014.23 1014.99 1015.47 1016.13 1016.72 1017.34 1018.21 1018.73 1018.78 1019.29 1019.89 1020.42 1020.87 1021.08 1021.30 1021.55 1021.90 1022.18 1022.36 1022.58 1022.86
1013.12 1011.39 1012.05 1011.95 1010.34 1009.63 1009.78 1009.78 1009.49 1009.90 1010.17 1010.67 1010.86 1011.21 1011.52 1011.56 1011.75 1011.99 1012.40 1012.81 1013.13 1013.54 1014.00 1014.62 1015.31 1016.03 1016.43 1016.82 1017.32 1018.11 1018.30 1018.73 1019.53 1020.19 1020.55 1020.92 1021.13 1021.44 1021.59 1021.97 1022.58 1022.83 1022.96 1023.15
1012.15 1011.35 1011.03 1011.12 1009.51 1009.62 1009.37 1009.61 1009.74 1009.99 1010.00 1010.13 1010.47 1010.70 1011.41 1011.53 1011.56 1012.00 1012.43 1013.06 1013.62 1014.15 1014.59 1015.01 1015.51 1016.14 1016.66 1016.97 1017.28 1017.62 1018.16 1018.68 1019.50 1020.06 1020.55 1020.97 1021.24 1021.70 1021.88 1022.12 1022.30 1022.76 1023.08 1023.30
1010.20 1010.98 1010.49 1009.80 1009.61 1009.67 1009.36 1009.32 1009.49 1009.94 1010.29 1010.43 1010.74 1010.97 1011.18 1011.58 1011.99 1012.37 1012.57 1013.19 1013.94 1014.42 1014.90 1015.36 1015.60 1016.03 1016.55 1017.01 1017.38 1017.84 1018.11 1018.60 1019.24 1019.78 1020.18 1020.58 1020.98 1021.37 1021.79 1021.94 1022.18 1022.37 1022.45 1022.60
1008.68 1009.04 1008.59 1007.86 1008.18 1007.91 1008.15 1008.43 1009.13 1010.36 1010.26 1010.08 1010.99 1011.42 1011.49 1011.86 1012.25 1012.90 1013.32 1013.56 1014.27 1014.97 1015.25 1015.42 1015.54 1015.75 1015.79 1016.16 1016.99 1017.57 1017.92 1018.40 1018.99 1019.60 1020.07 1020.42 1020.71 1021.06 1021.38 1021.66 1021.79 1021.78 1021.78 1021.91
Wind_Speed
4 5 1 2 0 3 4 2 3 4 3 5 6 12 18 12 7 9 8 8 8 7 4 2 1 4 5 2 3 3 4 3 3 2 3 2 4 4 3 3 6 6 4 4
5 1 2 2 1 2 2 0 4 5 2 3 6 21 11 5 5 4 5 7 8 4 5 6 4 4 3 2 2 2 3 3 2 1 2 3 3 3 4 3 5 5 5 5
4 2 2 2 2 1 0 2 1 2 8 1 8 8 6 2 3 2 2 4 4 5 6 4 3 5 3 2 1 2 3 3 3 4 3 3 3 3 2 3 5 4 6 5
4 1 3 2 2 1 3 1 2 2 6 4 5 7 5 5 9 4 5 6 7 7 5 4 3 4 4 3 1 2 3 3 3 4 3 3 2 3 3 4 4 7 6 6
3 4 3 2 2 1 1 1 1 2 2 3 4 4 9 4 4 4 6 6 6 6 6 6 5 4 3 3 1 1 2 3 3 4 3 2 3 2 4 4 6 6 5 6
2 1 2 2 2 3 4 2 3 4 3 4 3 4 7 3 3 5 3 7 6 6 5 4 3 4 4 1 1 1 2 2 3 4 4 4 4 5 5 4 4 5 5 7
3 1 1 1 3 1 2 2 5 8 7 6 1 2 11 5 4 5 6 8 7 5 4 4 4 2 2 3 1 1 2 3 4 4 4 5 6 5 6 6 5 7 6 4
7 5 1 2 1 2 1 2 7 5 1 6 1 7 6 5 5 7 7 7 6 5 4 3 3 2 1 3 1 1 4 3 4 4 4 3 4 4 4 5 6 4 6 6
6 1 2 3 2 2 2 1 3 8 2 4 4 8 9 4 9 6 9 6 8 6 5 2 4 3 2 3 1 0 3 2 4 3 4 4 4 5 6 7 6 5 6 7
5 5 2 1 0 3 1 4 4 4 1 4 6 7 6 4 5 5 8 9 7 4 4 2 3 3 2 2 1 0 1 2 1 3 3 3 3 4 4 5 6 7 7 8
5 5 4 2 4 7 1 1 4 3 3 6 1 8 9 7 7 7 8 8 7 6 5 4 3 3 3 2 2 2 1 2 2 2 1 3 3 4 4 4 5 6 7 8
7 6 4 5 2 2 1 3 4 5 5 1 3 11 1 7 5 5 9 8 6 5 5 4 4 5 4 3 2 2 2 2 1 1 2 3 3 3 4 4 6 5 6 6
9 1 4 6 3 4 4 5 4 5 3 6 6 9 3 5 6 7 9 9 7 5 5 5 4 6 6 5 3 3 3 2 1 1 2 3 4 4 4 4 4 6 6 7
6 4 7 9 7 7 4 5 5 6 4 5 8 10 9 8 7 8 9 9 9 7 8 6 6 6 6 5 5 4 3 3 2 2 2 3 4 4 4 4 4 4 5 6
3 6 4 3 3 3 5 6 9 9 7 8 5 11 19 6 8 8 8 8 7 8 6 7 6 6 5 6 4 4 3 3 2 1 2 3 3 3 4 5 6 6 8 7
2 3 3 2 4 5 2 4 8 7 4 10 8 23 14 18 7 6 9 8 9 9 7 6 7 8 8 7 7 5 4 4 2 1 2 2 3 3 4 5 5 6 7 8
8 7 4 5 2 3 4 11 14 6 6 10 10 21 6 7 6 7 9 9 10 9 8 6 9 9 8 8 8 7 6 4 3 2 1 2 3 4 4 5 6 6 7 6
8 6 3 4 2 4 8 4 6 14 9 15 13 15 15 7 6 8 9 11 10 8 7 6 6 7 8 7 6 7 6 5 5 3 2 2 2 3 3 3 5 5 4 6
2 4 4 7 5 6 3 6 9 9 12 16 22 21 9 3 5 6 5 4 7 7 6 5 7 6 7 9 8 7 7 6 5 5 4 3 3 3 2 4 4 4 3 4
3 3 4 4 5 9 7 2 5 5 8 6 9 8 5 4 1 4 1 4 7 5 3 6 7 6 8 8 9 9 7 6 6 6 6 4 2 2 2 1 3 3 3 3
4 1 8 6 6 7 5 6 6 6 9 4 6 5 7 5 4 2 6 5 4 2 4 6 7 8 8 9 9 8 8 9 7 6 6 4 4 3 3 2 3 3 4 4
11 11 7 3 7 17 7 5 11 7 2 6 5 5 6 6 5 5 6 5 3 4 5 6 6 7 6 7 9 8 8 5 6 6 6 5 4 3 3 4 2 3 4 3
9 9 10 14 8 2 14 6 7 5 5 4 5 6 5 4 2 2 3 6 3 3 4 4 6 5 2 6 6 8 5 7 6 5 5 4 4 3 3 4 3 2 3 2
5 2 4 4 5 7 9 5 3 6 6 5 5 7 5 4 4 2 1 3 2 1 2 3 6 5 6 5 6 4 6 6 6 5 4 3 5 4 3 2 2 3 2 1
7 12 7 4 3 3 8 9 5 8 4 5 5 5 6 4 4 2 2 1 2 3 2 4 6 5 4 4 5 4 4 6 5 3 3 4 3 4 3 2 3 3 3 4
7 9 9 10 10 7 5 7 8 9 12 13 8 5 5 4 5 3 2 3 1 2 1 2 4 5 6 7 7 6 6 6 6 4 3 3 3 3 2 2 2 6 9 8
Wind_Direction
1 71 221 188 156 123 130 160 262 273 49 323 251 276 282 285 241 260 266 263 270 270 272 294 172 154 151 126 79 32 337 327 342 333 326 332 312 313 303 333 320 313 302 301
26 174 160 129 65 108 99 147 290 281 42 2 329 295 281 291 268 235 251 253 253 259 283 249 210 193 175 117 76 340 327 335 332 341 313 291 284 288 272 305 313 305 309 311
154 164 155 142 50 110 147 196 188 221 326 194 311 295 343 315 326 304 225 246 252 241 267 278 234 229 179 181 215 331 324 346 339 10 336 323 307 305 286 1 319 317 302 298
94 209 171 118 110 117 253 163 112 44 30 290 6 279 314 339 314 295 289 263 260 268 275 276 266 254 183 199 167 331 359 1 3 20 16 15 337 327 315 315 296 306 306 293
211 166 167 135 129 91 284 343 65 80 60 348 350 71 271 354 317 303 339 324 276 261 250 273 281 253 129 131 146 356 12 10 10 23 23 349 335 286 293 301 306 310 324 328
91 329 16 106 112 98 142 118 42 56 65 28 281 115 287 241 236 307 327 325 306 299 292 281 28 90 107 114 36 351 40 14 11 30 9 335 360 333 324 321 336 345 336 343
2 48 9 46 103 58 129 56 344 358 12 219 350 354 245 256 253 236 279 299 303 309 319 319 303 270 161 190 316 320 49 21 8 28 18 355 355 344 317 337 345 348 344 318
146 300 161 10 1 167 160 158 147 210 264 274 65 242 248 213 271 256 260 265 287 298 292 277 274 232 189 160 213 360 47 22 4 25 16 3 360 345 336 340 337 349 329 321
132 315 318 49 20 75 216 64 140 102 51 39 261 284 302 269 275 268 274 284 271 277 284 270 140 141 177 167 208 175 64 44 355 13 1 26 16 349 349 339 335 337 318 327
192 88 311 357 114 32 54 149 75 6 59 300 295 284 244 256 241 263 268 264 277 269 258 259 149 159 209 162 166 107 88 106 353 353 14 21 10 356 351 340 347 334 324 326
135 107 287 22 209 175 105 29 51 109 125 169 281 273 216 221 211 226 254 269 268 264 243 240 194 152 191 181 153 206 138 128 81 343 16 20 7 357 352 350 338 341 340 349
190 121 134 211 256 324 313 210 167 125 244 64 139 272 274 247 279 283 277 279 275 241 228 203 190 160 177 209 180 209 217 141 155 322 20 39 35 19 21 13 339 349 338 342
181 299 73 350 6 358 224 197 149 103 78 205 140 263 348 298 283 265 267 278 278 262 240 187 183 182 189 199 196 195 237 206 172 103 38 20 26 30 24 24 13 352 359 352
102 100 156 183 183 129 174 198 174 138 126 193 225 274 292 270 271 279 279 270 278 267 244 210 197 196 191 189 189 191 210 246 237 127 83 48 34 13 22 19 28 25 12 16
142 175 107 313 26 131 161 165 176 189 194 177 248 228 260 248 228 251 255 277 285 280 258 223 197 188 185 176 184 191 190 231 242 113 76 63 50 51 30 27 34 26 30 26
182 170 120 2 4 42 274 196 194 228 251 273 281 277 268 271 240 278 270 277 279 274 262 231 198 178 184 179 176 191 190 206 238 152 91 45 53 60 59 52 47 57 47 34
147 139 111 241 17 83 335 224 191 194 212 204 215 246 277 257 236 254 269 260 262 263 270 227 202 187 175 176 162 183 189 173 184 191 123 38 50 47 60 68 68 56 60 53
148 122 92 152 34 267 229 139 172 202 236 213 259 260 254 261 248 258 250 264 269 251 253 229 186 173 167 155 149 149 163 178 171 204 187 123 68 53 25 39 82 85 76 68
72 145 120 143 207 312 273 198 170 170 271 202 225 252 270 257 324 289 217 229 262 248 234 216 166 162 158 153 154 148 159 173 169 188 215 194 143 105 48 66 49 36 85 94
106 80 121 131 194 211 236 155 155 147 289 212 186 238 224 131 119 260 247 299 305 249 176 169 151 140 146 158 146 146 167 171 196 192 193 186 168 128 102 75 74 23 16 53
125 53 196 185 226 270 227 150 175 100 236 148 177 200 152 179 213 290 313 313 305 244 158 138 153 158 166 150 148 160 167 195 189 173 163 161 165 152 122 81 26 40 47 50
158 160 191 169 219 245 139 92 176 208 111 154 182 183 183 228 302 304 300 314 358 155 130 147 155 161 159 155 154 164 193 178 160 155 153 156 156 156 134 121 72 59 66 58
203 196 184 190 209 166 185 199 188 173 140 190 171 165 186 186 196 14 329 300 316 184 156 150 160 146 141 165 166 174 207 156 149 149 171 166 145 147 147 138 127 91 111 122
252 223 179 107 205 208 202 246 224 180 178 182 183 165 189 202 151 135 44 318 275 191 165 140 141 166 191 192 194 179 153 149 146 165 172 168 163 157 147 127 144 144 153 175
178 150 166 281 282 331 267 224 204 192 199 195 210 187 195 191 236 203 152 151 255 219 172 161 172 173 213 181 210 162 154 148 161 163 180 188 168 171 166 180 181 188 207 174
184 166 183 214 195 180 206 209 172 183 209 210 182 217 222 221 219 193 161 102 77 266 243 189 194 193 203 178 193 183 172 162 155 176 186 203 180 177 170 173 281 245 232 225